map of AAC home
Great Circle Mapper logo
AAC - Airport
Location
City:  Al Arish, Egypt
Name:Al Arish International Airport
ICAO / IATA:HEAR / AAC

Details
Type:Airport (Aerodrome, Airfield)
Use:Public/Civil, International (customs port of entry)
Latitude:3104'24"N (31.073333)
Longitude:3350'09"E (33.835833)
Datum:WGS 1984
Elevation:121 ft (37 m)
Variation:4.36E (WMM2015 magnetic declination)
0.08 annual change
Runways:1
Longest:9905 × 148 ft (3019 × 45 m), paved

Time
Time Zone:UTC+2 (DST+3)
Local Time:

Weather
METAR:HEAR 291900Z 30003KT CAVOK 21/17 Q1012 NOSIG
TAF:HEAR 291700Z 2918/3024 VRB03KT CAVOK
BECMG 3007/3009 34008KT 9999 SCT020
BECMG 3018/3020 VRB03KT CAVOK

Related Locations
Nearby:
Farthest:NTAV: 11927 mi / 19194 km
Raivavae, Tubuai Islands, Austral Islands, PF

Find:

   beyond  
but within

Other Information
Maps:
NOTAMs:
Links:
Sources:

  
flag of Egypt   

Sectional Chart

Flight Planning
at skyvector.com

Satellite Image

Google Maps Satellite View

 

Copyright © 2004-2015 Karl L. Swartz. All rights reserved.
The Great Circle Mapper name and logo are trademarks of the Great Circle Mapper.
All other trademarks mentioned herein belong to their respective owners.
Please see credits for attibutions and further copyright information.

  Follow gcmap on Facebook Follow gcmap on Twitter Follow gcmap on Google+

hCard Microformat

Geo Microformat